Regional Weather Roundup
Issued by NWS

Home | Current Version | Previous Version | Graphics & Text | Print | Product List | Glossary On
Versions: 1 2 3 4 5 6 7 8 9 10 11 12 13 14 15 16 17 18 19 20 21 22 23 24 25 26 27 28 29 30 31 32 33 34 35 36 37 38 39 40 41 42 43 44 45 46 47 48 49 50
000
ASUS45 KBOU 260207
RWRCO

WEATHER ROUNDUP FOR COLORADO
NATIONAL WEATHER SERVICE DENVER/BOULDER CO
800 PM MDT MON JUL 25 2016

NOTE: "FAIR" INDICATES FEW OR NO CLOUDS BELOW 12000 FEET WITH NO
SIGNIFICANT WEATHER AND/OR OBSTRUCTIONS TO VISIBILITY.

COZ001>005-013-030-031-260300-
...NORTHWEST COLORADO...

CITY           SKY/WX    TMP DP  RH WIND       PRES   REMARKS
CRAIG          FAIR      80  32  17 W6        30.22R
HAYDEN         FAIR      75  36  23 N14       30.25R
MEEKER         FAIR      83  35  18 NW10      30.22S
MOUNT WERNER   NOT AVBL
STEAMBOAT SPGS FAIR      76  37  24 W13G25    30.28R
WALDEN         FAIR      73  27  17 N3        30.37S
$$

COZ006>008-011-260300-
...WEST CENTRAL VALLEYS...

CITY           SKY/WX    TMP DP  RH WIND       PRES   REMARKS
GRAND JUNCTION FAIR      90  39  16 SE18G28   30.07R
MONTROSE       FAIR      82  42  24 E10       30.20R
EAGLE          FAIR      84  36  17 NW5       30.24S
RIFLE          FAIR      88  36  15 S14       30.12R
DELTA          FAIR      90  38  16 NE6       30.14F
NUCLA          FAIR     N/A N/A N/A CALM      30.25S
$$

COZ017>023-064>068-260300-
...SOUTHWEST COLORADO...

CITY           SKY/WX    TMP DP  RH WIND       PRES   REMARKS
DURANGO        CLOUDY    75  48  38 VRB3      30.27F
CORTEZ         FAIR      84  43  23 SE20G26   30.18R
PAGOSA SPRINGS MOCLDY    74  42  31 SW6       30.38R
TELLURIDE      MOCLDY    68  43  40 CALM      30.50S
WOLF CREEK PAS CLOUDY    52  39  62 SW16G23   30.74R
$$

COZ009-010-012-014-032>034-037-058>063-260300-
...CENTRAL COLORADO...

CITY           SKY/WX    TMP DP  RH WIND       PRES   REMARKS
ASPEN          FAIR      72  45  37 S9        30.34S
BUENA VISTA    FAIR      74  30  20 W8        30.37S
COPPER MTN     FAIR      61  21  21 NW10      30.73R
BERTHOUD PASS  FAIR      52  37  58 N5        30.77R
COTTONWOOD PAS FAIR      68  27  21 W8        30.54S
GUNNISON       FAIR      68  48  49 SW7       30.40F
KREMMLING      FAIR      73  30  20 W5        30.31S
LEADVILLE      FAIR      65  32  29 S6        30.53S
MONARCH PASS   FAIR      55  28  35 N9        30.82F
SALIDA         FAIR      78  38  24 CALM      30.39S
SUNLIGHT       FAIR      66  32  28 CALM      30.64S
WILKERSON PASS MOCLDY    59  27  29 SW6       30.67S
$$

COZ069>075-260300-
...SAN LUIS VALLEY/SANGRE DE CRISTO MOUNTAINS...

CITY           SKY/WX    TMP DP  RH WIND       PRES   REMARKS
ALAMOSA        FAIR      72  48  42 S8        30.33R
LA VETA PASS   FAIR      59  46  63 NE10G22   30.58R
SAGUACHE       FAIR      72  39  30 NW8       30.37S
$$

COZ035-036-038>040-260300-
...NORTHERN COLORADO FRONT RANGE...

CITY           SKY/WX    TMP DP  RH WIND       PRES   REMARKS
DENVER INTL AP FAIR      81  45  28 S23G31    30.12S
DMNS CITY PARK   N/A     81  44  27 SE17      30.12S
AURORA         PTCLDY    79  49  34 S21G30    30.15S
FRONT RANGE AP MOCLDY    82  43  24 S14G22    30.14F
ERIE MUNI ARPT FAIR      83  55  37 CALM      30.10R
BOULDER MUN AP FAIR      82  55  39 CALM      30.11S
CENTENNIAL     FAIR      77  45  32 S22G33    30.17F
BROOMFIELD     MOCLDY    86  54  32 CALM      30.15S
LONGMONT       FAIR      86  54  33 SW3       30.10S
$$

COZ041-046-047-076>085-087-088-260300-
...PIKES PEAK/PALMER DIVIDE AND SOUTHERN FOOTHILLS...

CITY           SKY/WX    TMP DP  RH WIND       PRES   REMARKS
COLO. SPRINGS  MOCLDY    73  46  38 W6        30.26F
A. F. ACADEMY  CLOUDY    70  49  46 SE3       30.27F
SCHRIEVER AFB  NOT AVBL
ELLICOTT       FAIR     N/A N/A N/A E12       30.26  THUNDER
FALCON         NOT AVBL
FORT CARSON    FAIR      75  46  36 SW1       30.22F
LIMON          NOT AVBL
MONUMENT HILL  FAIR      68  43  40 S10       30.32S
TRINIDAD       NOT AVBL
$$

COZ042>045-048>051-090-091-260300-
...NORTHEAST COLORADO...

CITY           SKY/WX    TMP DP  RH WIND       PRES   REMARKS
GREELEY ARPT   FAIR      84  48  28 S13       30.08R
AKRON          FAIR      77  60  55 SE16      30.14R
BURLINGTON     FAIR      75  62  64 SE13      30.14F
WRAY           NOT AVBL
STERLING       FAIR      79  63  57 SE13      30.08R
HOLYOKE        FAIR      79  64  61 W9        30.11R
FORT MORGAN    FAIR      78  60  53 SE13G20   30.10R
$$

COZ086-089-092>099-260300-
...SOUTHEAST COLORADO...

CITY           SKY/WX    TMP DP  RH WIND       PRES   REMARKS
PUEBLO         FAIR      70  57  63 SE17G30   30.12F
LA JUNTA       FAIR      82  63  52 E15       30.14R
LAMAR          FAIR      81  64  56 E10       30.10R
SPRINGFIELD      N/A     77  64  64 SE18      30.13F
$$



USA.gov is the U.S. government's official web portal to all federal, state and local government web resources and services.